Home   Weather   Davos   Past weeks

Flag for Switzerland Past Weather in Davos, Graubünden, Switzerland — Yesterday and Last 2 Weeks

Now
69 °F

Partly sunny.


Feels Like: 69 °F
Forecast: 46 / 68 °F
Wind: 22 mph from Northeast

Location: Chur

Current Time: Jul 28, 2017 at 3:17:57 pm

Latest Report: Jul 28, 2017 at 2:00 pm


Visibility: 13 mi

Pressure: 29.97 "Hg (25.05 "Hg at 1540m altitude)

Humidity: 65%

Dew Point: 57 °F

Location of DavosLocation

Past Weather in Davos — Graph

°F

Davos Temperature Yesterday

Maximum temperature yesterday: 67 °F (at 6:00 pm)
Minimum temperature yesterday: 51 °F (at 5:00 am)
Average temperature yesterday: 60 °F

High & Low Weather Summary for the Past Weeks

 TemperatureHumidityPressure
High92 °F (Jul 19, 4:00 pm)96% (Jul 24, 6:00 am)30.31 "Hg (Jul 24, 6:00 am)
Low51 °F (Jul 27, 5:00 am)26% (Jul 19, 4:00 pm)29.72 "Hg (Jul 21, 6:00 pm)
Average66 °F71%29.99 "Hg
* Reported Jul 13 1:00 pm — Jul 28 1:00 pm, Davos. Weather by CustomWeather, © 2017

Note: Actual official high and low records may vary slightly from our data, if they occured in-between our weather recording intervals... More about our weather records

Advertising

Davos Weather History for the Previous 24 Hours

Scroll right to see more
 ConditionsComfort  
Time TempWeatherWind HumidityBarometerVisibility
1:00 pm
Fri, Jul 28
69 °FMild.17 mph64%29.96 "HgN/A
12:00 pm67 °FMild.17 mph71%29.97 "HgN/A
11:00 am65 °FLow clouds.13 mph82%29.98 "Hg5 mi
10:00 am64 °FMild.8 mph85%29.96 "HgN/A
9:00 am63 °FMild.1 mph83%29.96 "HgN/A
8:00 am62 °FDrizzle. Overcast.2 mph90%29.95 "Hg10 mi
7:00 am61 °FCool.1 mph89%29.94 "HgN/A
6:00 am61 °FCool.3 mph86%29.94 "HgN/A
5:00 am61 °FOvercast.1 mph87%29.94 "Hg6 mi
4:00 am62 °FCool.3 mph86%29.94 "HgN/A
3:00 am62 °FCool.8 mph84%29.93 "HgN/A
2:00 am62 °FOvercast.5 mph83%29.90 "Hg6 mi
1:00 am61 °FCool.3 mph86%29.92 "HgN/A
12:00 am61 °FCool.2 mph90%29.91 "HgN/A
11:00 pm
Thu, Jul 27
62 °FOvercast.No wind87%29.90 "Hg6 mi
10:00 pm63 °FMild.1 mph83%29.88 "HgN/A
9:00 pm65 °FMild.2 mph77%29.86 "HgN/A
8:00 pm66 °FFog.3 mph70%29.84 "Hg9 mi
7:00 pm67 °FMild.6 mph68%29.82 "HgN/A
6:00 pm67 °FMild.6 mph64%29.84 "HgN/A
5:00 pm67 °FFog.5 mph65%29.85 "Hg9 mi
4:00 pm66 °FMild.8 mph65%29.87 "HgN/A
3:00 pm67 °FMild.8 mph65%29.88 "HgN/A
Weather by CustomWeather, © 2017

See weather overviewHow to use our weather pages